IK5NLA Vaiano IT current weather conditions

sailwx.info

Wind from 005 at 3 knots

Air temperature 6.1° C
Dewpoint 0.0° C

Last reported at 2015-Feb-28 23:50 UTC.
Time now 2015-Mar-01 00:34 UTC

Location: N 43°58' E 011°06'.
View on Google Maps.

See reports from other nearby stations

  
Tides and Currents Weather Stations Pressure Air Temp Water Temp Dewpoint Dewpoint Depression Visibility Wind Speed Wind Dir Waves Ship Positions
date/time (UTC)wind fromknots sea level pressurealtimeterstation pressurevisibilityair tempwater tempwave heightnotes
2015-Feb-28 23:50 005 3 6.1
2015-Feb-28 23:40 355 2 6.7
2015-Feb-28 23:30 360 3 6.7
2015-Feb-28 23:25 360 3 6.7
2015-Feb-28 23:20 341 3 6.7
2015-Feb-28 23:15 019 2 6.7
2015-Feb-28 23:10 024 3 6.1
2015-Feb-28 23:05 057 3 6.1
2015-Feb-28 22:55 063 3 6.1
2015-Feb-28 22:50 061 4 6.1
2015-Feb-28 22:45 057 3 6.1
2015-Feb-28 22:40 066 2 6.1
2015-Feb-28 22:35 063 2 6.7
2015-Feb-28 22:20 055 2 6.1
2015-Feb-28 22:16 057 3 6.1
2015-Feb-28 22:10 048 4 6.1
2015-Feb-28 22:00 055 3 6.7
2015-Feb-28 21:55 063 2 6.7
2015-Feb-28 21:50 076 3 6.7
2015-Feb-28 21:45 032 3 6.7
2015-Feb-28 21:40 063 4 6.1
2015-Feb-28 21:35 055 4 6.1
2015-Feb-28 21:30 071 4 6.1
2015-Feb-28 21:20 047 4 6.1
2015-Feb-28 21:15 058 4 6.1
2015-Feb-28 21:05 059 4 6.1
2015-Feb-28 21:00 059 4 6.1
2015-Feb-28 20:55 046 4 6.1
2015-Feb-28 20:45 053 4 6.1
2015-Feb-28 20:40 058 5 6.1
2015-Feb-28 20:35 047 5 6.1
2015-Feb-28 20:30 046 4 6.1
2015-Feb-28 20:25 076 4 6.1
2015-Feb-28 20:20 071 4 6.1
2015-Feb-28 20:15 079 4 6.1
2015-Feb-28 20:10 054 4 6.1
2015-Feb-28 20:00 041 4 6.1
2015-Feb-28 19:50 063 3 6.1
2015-Feb-28 19:45 061 3 6.7
2015-Feb-28 19:40 034 3 6.7
2015-Feb-28 19:35 072 4 6.7
2015-Feb-28 19:30 088 3 6.7
2015-Feb-28 19:20 051 3 6.7
2015-Feb-28 19:10 075 3 6.7
2015-Feb-28 19:05 082 3 6.7
2015-Feb-28 18:50 077 4 7.2
2015-Feb-28 18:45 046 4 7.2
2015-Feb-28 18:35 083 3 7.2
2015-Feb-28 18:30 064 3 7.2
2015-Feb-28 18:25 063 3 7.2
2015-Feb-28 18:16 057 3 7.2
2015-Feb-28 18:10 080 3 7.2
2015-Feb-28 18:05 092 3 7.2
2015-Feb-28 18:00 090 3 7.2
2015-Feb-28 17:55 098 3 7.2
2015-Feb-28 17:50 078 3 7.2
2015-Feb-28 17:45 077 3 7.2
2015-Feb-28 17:40 084 3 7.2
2015-Feb-28 17:30 097 2 7.2
2015-Feb-28 17:25 065 3 7.8
2015-Feb-28 17:20 096 3 7.8
2015-Feb-28 17:15 078 3 7.8
2015-Feb-28 17:10 030 3 7.8
2015-Feb-28 17:00 057 3 8.3
2015-Feb-28 16:45 064 2 8.3
2015-Feb-28 16:35 076 3 8.3
2015-Feb-28 16:05 070 3 9.4
2015-Feb-28 16:00 088 3 9.4
2015-Feb-28 15:55 067 3 9.4
2015-Feb-28 15:50 095 3 9.4
2015-Feb-28 15:40 042 2 9.4
2015-Feb-28 15:35 110 2 9.4
2015-Feb-28 15:25 057 3 9.4
2015-Feb-28 15:20 099 2 9.4
2015-Feb-28 15:15 098 2 10.0
2015-Feb-28 15:10 095 3 10.0
2015-Feb-28 15:05 092 3 10.0
2015-Feb-28 15:00 080 3 10.0
2015-Feb-28 14:55 085 4 10.0
2015-Feb-28 14:50 074 4 10.0
2015-Feb-28 14:45 086 3 10.0
2015-Feb-28 14:40 096 3 10.0
2015-Feb-28 14:35 100 3 10.0
2015-Feb-28 14:15 110 3 10.0
2015-Feb-28 14:10 117 2 10.0
2015-Feb-28 14:00 107 2 10.0
2015-Feb-28 13:55 086 4 10.0
2015-Feb-28 13:50 033 4 10.0
2015-Feb-28 13:40 070 5 10.0
2015-Feb-28 13:30 099 4 10.6
2015-Feb-28 13:25 065 5 11.1
2015-Feb-28 13:15 101 2 11.7
2015-Feb-28 13:10 116 4 11.1
2015-Feb-28 13:05 105 3 11.1
2015-Feb-28 12:55 095 4 11.7
2015-Feb-28 12:50 106 4 11.1
2015-Feb-28 12:45 121 4 11.7
2015-Feb-28 12:40 168 5 11.1
2015-Feb-28 12:35 110 5 11.1
2015-Feb-28 12:30 110 5 11.1
2015-Feb-28 12:20 128 5 11.1
2015-Feb-28 12:10 146 6 10.6
2015-Feb-28 12:05 116 6 10.6
2015-Feb-28 11:45 096 5 11.1
2015-Feb-28 11:40 098 4 10.6
2015-Feb-28 11:35 121 6 10.6
2015-Feb-28 11:30 111 5 10.0
2015-Feb-28 11:25 095 4 10.0
2015-Feb-28 11:20 128 5 10.0
2015-Feb-28 11:15 119 4 10.0
2015-Feb-28 11:10 132 5 10.0
2015-Feb-28 11:05 091 6 10.0
2015-Feb-28 10:55 123 6 10.0
2015-Feb-28 10:45 105 6 10.0
2015-Feb-28 10:35 095 6 10.0
2015-Feb-28 10:30 150 6 10.0
2015-Feb-28 10:25 125 5 10.0
2015-Feb-28 10:20 078 5 10.0
2015-Feb-28 10:10 106 6 9.4
2015-Feb-28 10:05 119 6 9.4
2015-Feb-28 10:00 123 6 8.9
2015-Feb-28 09:55 100 6 9.4
2015-Feb-28 09:50 136 6 8.9
2015-Feb-28 09:45 119 6 9.4
2015-Feb-28 09:40 140 5 8.9
2015-Feb-28 09:35 121 5 8.9
2015-Feb-28 09:30 099 5 8.9
2015-Feb-28 09:25 110 5 8.9
2015-Feb-28 09:10 095 6 8.9
2015-Feb-28 09:05 105 6 8.3
2015-Feb-28 09:00 103 6 8.3
2015-Feb-28 08:55 125 5 8.3
2015-Feb-28 08:50 071 5 8.3
2015-Feb-28 08:45 106 4 7.8
2015-Feb-28 08:30 103 5 7.2
2015-Feb-28 08:20 103 4 7.2
2015-Feb-28 08:15 132 4 7.2
2015-Feb-28 08:10 089 3 7.2
2015-Feb-28 08:00 148 3 7.2
2015-Feb-28 07:55 102 2 7.2
2015-Feb-28 07:50 102 2 7.2
2015-Feb-28 07:35 092 3 6.7
2015-Feb-28 07:30 021 2 6.7
2015-Feb-28 07:25 060 3 6.7
2015-Feb-28 07:05 059 4 6.1
2015-Feb-28 06:55 062 4 6.1
2015-Feb-28 06:50 059 4 6.1
2015-Feb-28 05:40 022 3 4.4
2015-Feb-28 05:35 038 2 4.4
2015-Feb-28 05:30 026 2 4.4
2015-Feb-28 05:25 049 2 5.0
2015-Feb-28 05:20 037 1 5.0
2015-Feb-28 05:15 050 1 5.0
2015-Feb-28 05:10 049 2 5.0
2015-Feb-28 05:00 044 3 5.0
2015-Feb-28 04:55 059 3 5.0
2015-Feb-28 04:50 057 4 5.0
2015-Feb-28 04:45 056 3 5.0
2015-Feb-28 04:35 054 3 5.0
2015-Feb-28 04:30 057 3 5.0
2015-Feb-28 04:25 094 3 5.0
2015-Feb-28 04:20 089 3 5.0
2015-Feb-28 04:15 051 4 5.0
2015-Feb-28 04:10 049 4 5.0
2015-Feb-28 04:05 048 4 5.0
2015-Feb-28 03:55 053 4 5.0
2015-Feb-28 03:50 039 4 5.0
2015-Feb-28 03:45 057 4 5.0
2015-Feb-28 03:40 045 4 5.6
2015-Feb-28 03:35 036 4 5.0
2015-Feb-28 03:30 044 4 5.0
2015-Feb-28 03:25 021 3 5.0
2015-Feb-28 03:15 057 2 5.0
2015-Feb-28 03:05 034 2 5.0
2015-Feb-28 02:50 040 3 5.0
2015-Feb-28 02:45 058 3 5.6
2015-Feb-28 02:40 036 3 5.0
2015-Feb-28 02:25 360 3 5.0
2015-Feb-28 02:15 021 2 5.0
2015-Feb-28 02:10 029 3 5.0
2015-Feb-28 02:05 022 3 5.6
2015-Feb-28 02:00 040 3 5.6
2015-Feb-28 01:55 030 2 5.6
2015-Feb-28 01:50 028 2 5.6
2015-Feb-28 01:45 040 2 5.6
2015-Feb-28 01:35 031 3 5.6
2015-Feb-28 01:30 021 3 5.6
2015-Feb-28 01:25 046 2 5.6
2015-Feb-28 01:20 053 2 6.1
2015-Feb-28 01:15 063 2 6.1
2015-Feb-28 01:10 058 2 6.1
2015-Feb-28 01:05 044 2 6.1
2015-Feb-28 01:00 035 3 6.1
2015-Feb-28 00:50 360 3 6.1
2015-Feb-28 00:25 078 2 6.7
2015-Feb-28 00:20 013 2 6.7
2015-Feb-28 00:10 040 3 6.7
2015-Feb-28 00:05 014 3 6.7
2015-Feb-27 23:50 022 2 6.1
2015-Feb-27 23:45 034 2 6.1
2015-Feb-27 23:40 032 2 6.1
2015-Feb-27 23:35 022 2 5.6
2015-Feb-27 23:30 028 2 5.6
2015-Feb-27 23:25 049 3 5.6
2015-Feb-27 23:20 038 3 5.6
2015-Feb-27 23:15 036 3 5.6
2015-Feb-27 23:05 040 4 5.6
2015-Feb-27 23:00 029 4 5.6
2015-Feb-27 22:55 037 3 5.6
2015-Feb-27 22:45 048 1 5.6
2015-Feb-27 22:40 064 1 5.6
2015-Feb-27 22:30 065 1 5.6
2015-Feb-27 22:25 061 1 5.6
2015-Feb-27 22:20 069 2 5.0
2015-Feb-27 22:16 079 2 5.0
2015-Feb-27 22:10 055 1 5.0
2015-Feb-27 22:05 056 2 5.6
2015-Feb-27 22:00 049 3 5.6
2015-Feb-27 21:50 046 3 5.6
2015-Feb-27 21:45 053 4 5.0
2015-Feb-27 21:35 061 3 5.0
2015-Feb-27 21:20 063 4 5.0
2015-Feb-27 21:10 068 3 5.0
2015-Feb-27 21:05 069 4 5.0
2015-Feb-27 20:50 048 3 5.0
2015-Feb-27 20:45 074 3 5.0
2015-Feb-27 20:35 074 4 5.6
2015-Feb-27 20:30 053 3 5.6
2015-Feb-27 20:20 058 3 5.6
2015-Feb-27 20:15 019 4 5.6
2015-Feb-27 19:45 030 4 5.6
2015-Feb-27 19:40 026 4 5.6
2015-Feb-27 19:35 028 4 5.6
2015-Feb-27 19:30 086 5 5.6
2015-Feb-27 19:25 026 5 5.6
2015-Feb-27 19:10 033 5 6.1
2015-Feb-27 19:05 069 4 6.1
2015-Feb-27 18:55 063 4 6.1
2015-Feb-27 18:45 055 3 6.1
2015-Feb-27 18:40 061 3 6.1
2015-Feb-27 18:30 051 3 6.1
2015-Feb-27 18:25 071 3 6.1
2015-Feb-27 18:20 056 3 6.1
2015-Feb-27 18:16 078 2 6.1
2015-Feb-27 18:10 046 3 6.1
2015-Feb-27 17:55 036 4 6.7
2015-Feb-27 17:45 056 4 6.7
2015-Feb-27 17:35 072 3 6.7
2015-Feb-27 17:30 095 3 6.7
2015-Feb-27 17:25 060 4 6.7
2015-Feb-27 17:20 059 4 6.7
2015-Feb-27 17:10 042 4 6.7
2015-Feb-27 17:00 068 4 7.2
2015-Feb-27 16:45 042 3 7.2
2015-Feb-27 16:35 064 3 7.2
2015-Feb-27 16:30 060 3 7.2
2015-Feb-27 16:20 095 3 7.2
2015-Feb-27 16:05 061 4 7.8
2015-Feb-27 16:00 046 3 7.8
2015-Feb-27 15:50 084 3 7.8
2015-Feb-27 15:45 080 5 7.8
2015-Feb-27 15:40 052 5 7.8
2015-Feb-27 15:30 138 3 8.3
2015-Feb-27 15:25 068 4 8.3
2015-Feb-27 15:20 082 4 8.3
2015-Feb-27 15:15 055 4 8.3
2015-Feb-27 15:00 098 7 8.3
2015-Feb-27 14:45 118 8 8.9
2015-Feb-27 14:40 086 7 8.9
2015-Feb-27 14:35 149 6 8.9
2015-Feb-27 14:30 110 4 9.4
2015-Feb-27 14:25 100 4 10.0
2015-Feb-27 14:20 130 5 9.4
2015-Feb-27 14:15 074 5 9.4
2015-Feb-27 14:05 115 6 8.9
2015-Feb-27 13:55 132 6 9.4
2015-Feb-27 13:50 084 6 9.4
2015-Feb-27 13:45 104 5 9.4
2015-Feb-27 13:20 106 5 9.4
2015-Feb-27 13:15 099 4 9.4
2015-Feb-27 13:10 105 5 9.4
2015-Feb-27 13:05 119 5 9.4
2015-Feb-27 12:50 099 5 10.0
2015-Feb-27 12:45 113 4 10.0
2015-Feb-27 12:35 094 4 9.4
2015-Feb-27 12:30 067 4 9.4
2015-Feb-27 12:25 050 4 8.9
2015-Feb-27 12:20 065 5 8.9
2015-Feb-27 12:16 056 5 9.4
2015-Feb-27 12:10 102 5 9.4
2015-Feb-27 12:05 105 6 9.4
2015-Feb-27 11:55 102 5 10.0
2015-Feb-27 11:45 119 6 9.4
2015-Feb-27 11:25 115 6 9.4
2015-Feb-27 11:20 128 5 9.4
2015-Feb-27 11:10 044 5 8.9
2015-Feb-27 10:55 111 5 8.9
2015-Feb-27 10:50 090 4 9.4
2015-Feb-27 10:45 136 5 9.4
2015-Feb-27 10:40 096 5 8.9
2015-Feb-27 10:35 095 5 8.9
2015-Feb-27 10:30 140 4 8.9
2015-Feb-27 10:25 090 4 8.9
2015-Feb-27 10:15 088 5 8.3
2015-Feb-27 10:10 098 4 8.9
2015-Feb-27 10:05 096 4 8.9
2015-Feb-27 10:00 105 4 8.3
2015-Feb-27 09:50 059 6 7.8
2015-Feb-27 09:45 084 6 7.8
2015-Feb-27 09:40 092 6 8.3
2015-Feb-27 09:35 136 5 8.3
2015-Feb-27 09:30 109 5 8.3
2015-Feb-27 09:20 111 4 8.3
2015-Feb-27 09:10 021 5 7.8
2015-Feb-27 09:05 076 4 7.8
2015-Feb-27 09:00 053 5 7.8
2015-Feb-27 08:50 073 6 7.2
2015-Feb-27 08:45 105 5 7.2
2015-Feb-27 08:40 019 4 7.2
2015-Feb-27 08:15 075 3 6.7
2015-Feb-27 08:10 079 2 6.1
2015-Feb-27 08:05 134 1 6.1
2015-Feb-27 07:55 107 2 6.1
2015-Feb-27 07:50 084 1 6.1
2015-Feb-27 07:45 128 2 6.1
2015-Feb-27 07:40 117 1 6.1
2015-Feb-27 07:35 093 2 6.1
2015-Feb-27 07:25 122 3 5.6
2015-Feb-27 07:20 064 2 6.1
2015-Feb-27 07:15 132 3 6.1
2015-Feb-27 06:50 107 3 5.6
2015-Feb-27 06:45 071 3 5.0
2015-Feb-27 06:35 086 3 5.0
2015-Feb-27 06:30 125 3 5.0
2015-Feb-27 06:25 050 3 5.0
2015-Feb-27 06:20 029 4 5.0
2015-Feb-27 06:10 044 5 4.4
2015-Feb-27 06:00 059 4 4.4
2015-Feb-27 05:55 090 4 4.4
2015-Feb-27 05:45 029 2 3.9
2015-Feb-27 05:25 091 2 3.9
2015-Feb-27 05:20 087 2 3.9
2015-Feb-27 05:15 074 2 4.4
2015-Feb-27 05:10 064 2 4.4
2015-Feb-27 04:55 005 4 4.4
2015-Feb-27 04:50 018 3 4.4
2015-Feb-27 04:45 009 3 4.4
2015-Feb-27 04:40 069 4 4.4
2015-Feb-27 04:35 064 4 4.4
2015-Feb-27 04:25 030 5 4.4
2015-Feb-27 04:15 017 6 4.4
2015-Feb-27 04:00 005 6 4.4
2015-Feb-27 03:55 018 6 4.4
2015-Feb-27 03:45 355 6 4.4
2015-Feb-27 03:40 022 5 4.4
2015-Feb-27 03:35 047 5 4.4
2015-Feb-27 03:30 009 4 4.4
2015-Feb-27 03:25 360 4 4.4
2015-Feb-27 03:20 080 3 4.4
2015-Feb-27 03:15 075 3 4.4
2015-Feb-27 03:00 062 4 4.4
2015-Feb-27 02:55 351 3 4.4
2015-Feb-27 02:50 037 3 4.4
2015-Feb-27 02:45 019 4 4.4
2015-Feb-27 02:40 315 3 4.4
2015-Feb-27 02:35 034 3 4.4
2015-Feb-27 02:30 026 4 4.4
2015-Feb-27 02:25 032 5 5.0
2015-Feb-27 02:20 027 5 5.0
2015-Feb-27 02:10 005 6 5.0
2015-Feb-27 01:55 355 5 5.0
2015-Feb-27 01:50 349 5 5.0
2015-Feb-27 01:45 013 4 5.0
2015-Feb-27 01:40 049 4 5.0
2015-Feb-27 01:35 019 4 5.0
2015-Feb-27 01:30 019 4 5.0
2015-Feb-27 01:20 061 4 5.0
2015-Feb-27 01:10 028 5 5.0
2015-Feb-27 01:05 025 5 5.0
2015-Feb-27 00:55 025 5 5.0
2015-Feb-27 00:50 044 5 5.0
2015-Feb-27 00:40 017 6 5.0
2015-Feb-27 00:35 029 5 5.0
2015-Feb-27 00:25 026 3 5.0
2015-Feb-27 00:16 082 2 5.0
2015-Feb-27 00:05 065 4 5.6